When you browse on this site, cookies collect data to enhance your experience and personalize the content and advertising you see.
Visit our Privacy Policy to learn more. By continuing to use the site, you agree to this use of cookies and data.
  • In Austria
  • List of Countries
  • For 7 days
  • Water Temperature
  • Weather Map
  • News
  • Weather Widgets
  • user-avatar
    Login

    Hourly Weather Chapulhuacan

    Today, 14 October, Monday

    Time Temperature Precipitation Wind Pressure Humidity
    00:00 +17°C° 0 mm 0 mps 677 mmHg 96%
    01:00 +17°C° 0 mm 0 mps 677 mmHg 96%
    02:00 +16°C° 0 mm 0 mps 677 mmHg 96%
    03:00 +17°C° 0 mm 0 mps 677 mmHg 95%
    04:00 +17°C° 0 mm 0 mps 677 mmHg 94%
    05:00 +17°C° 0 mm 0 mps 677 mmHg 94%
    06:00 +18°C° 0 mm 0 mps 677 mmHg 89%
    07:00 +20°C° 0 mm 0 mps 678 mmHg 83%
    08:00 +21°C° 0 mm 0 mps 679 mmHg 78%
    09:00 +25°C° 0 mm 1 mps 679 mmHg 73%
    10:00 +26°C° 0 mm 1 mps 678 mmHg 69%
    11:00 +27°C° 0 mm 2 mps 678 mmHg 65%
    12:00 +26°C° 0 mm 2 mps 678 mmHg 69%
    13:00 +26°C° 0 mm 2 mps 677 mmHg 74%
    14:00 +25°C° 0 mm 2 mps 676 mmHg 78%
    15:00 +24°C° 0.1 mm 2 mps 676 mmHg 84%
    16:00 +23°C° 0.1 mm 1 mps 676 mmHg 89%
    17:00 +22°C° 0.1 mm 1 mps 676 mmHg 95%
    18:00 +20°C° 0.1 mm 0 mps 676 mmHg 96%
    19:00 +19°C° 0.1 mm 0 mps 677 mmHg 97%
    20:00 +19°C° 0.1 mm 0 mps 678 mmHg 97%
    21:00 +19°C° 0.1 mm 0 mps 678 mmHg 97%
    22:00 +19°C° 0.1 mm 0 mps 678 mmHg 97%
    23:00 +19°C° 0.1 mm 0 mps 678 mmHg 96%

    Tomorrow, 15 October, Tuesday

    Time Temperature Precipitation Wind Pressure Humidity
    00:00 +18°C° 0 mm 0 mps 677 mmHg 96%
    01:00 +18°C° 0 mm 0 mps 677 mmHg 95%
    02:00 +18°C° 0 mm 0 mps 677 mmHg 95%
    03:00 +18°C° 0 mm 0 mps 677 mmHg 94%
    04:00 +17°C° 0 mm 0 mps 677 mmHg 94%
    05:00 +17°C° 0 mm 0 mps 676 mmHg 94%
    06:00 +19°C° 0 mm 0 mps 677 mmHg 89%
    07:00 +20°C° 0 mm 0 mps 678 mmHg 84%
    08:00 +21°C° 0 mm 0 mps 678 mmHg 80%
    09:00 +23°C° 0 mm 0 mps 678 mmHg 74%
    10:00 +26°C° 0 mm 1 mps 678 mmHg 68%
    11:00 +27°C° 0 mm 2 mps 677 mmHg 62%
    12:00 +27°C° 0 mm 2 mps 677 mmHg 66%
    13:00 +27°C° 0 mm 2 mps 676 mmHg 69%
    14:00 +27°C° 0 mm 2 mps 675 mmHg 72%
    15:00 +25°C° 0.1 mm 2 mps 675 mmHg 79%
    16:00 +24°C° 0.1 mm 1 mps 675 mmHg 86%
    17:00 +23°C° 0.1 mm 1 mps 674 mmHg 93%
    18:00 +20°C° 0 mm 0 mps 675 mmHg 94%
    19:00 +19°C° 0 mm 0 mps 675 mmHg 95%
    20:00 +19°C° 0 mm 0 mps 676 mmHg 96%
    21:00 +19°C° 0 mm 0 mps 676 mmHg 96%
    22:00 +19°C° 0 mm 0 mps 676 mmHg 96%
    23:00 +19°C° 0 mm 0 mps 676 mmHg 96%

    Day after tomorrow, 16 October, Wednesday

    Time Temperature Precipitation Wind Pressure Humidity
    00:00 +18°C° 0 mm 0 mps 676 mmHg 96%
    01:00 +18°C° 0 mm 0 mps 676 mmHg 96%
    02:00 +18°C° 0 mm 0 mps 675 mmHg 96%
    03:00 +18°C° 0.1 mm 0 mps 675 mmHg 96%
    04:00 +18°C° 0.1 mm 0 mps 675 mmHg 96%
    05:00 +18°C° 0.1 mm 0 mps 675 mmHg 96%
    06:00 +19°C° 0 mm 0 mps 676 mmHg 91%
    07:00 +20°C° 0 mm 0 mps 677 mmHg 87%
    08:00 +22°C° 0 mm 0 mps 677 mmHg 83%
    09:00 +24°C° 0.2 mm 1 mps 677 mmHg 83%
    10:00 +24°C° 0.2 mm 1 mps 677 mmHg 83%
    11:00 +24°C° 0.2 mm 2 mps 676 mmHg 84%
    12:00 +23°C° 0.4 mm 1 mps 676 mmHg 86%
    13:00 +23°C° 0.4 mm 1 mps 675 mmHg 89%
    14:00 +22°C° 0.4 mm 1 mps 675 mmHg 92%
    15:00 +22°C° 0.4 mm 1 mps 675 mmHg 94%
    16:00 +21°C° 0.4 mm 1 mps 675 mmHg 95%
    17:00 +20°C° 0.4 mm 1 mps 675 mmHg 97%
    18:00 +20°C° 0.5 mm 1 mps 675 mmHg 97%
    19:00 +20°C° 0.5 mm 1 mps 676 mmHg 97%
    20:00 +20°C° 0.5 mm 1 mps 676 mmHg 97%
    21:00 +20°C° 0.4 mm 1 mps 676 mmHg 97%
    22:00 +20°C° 0.4 mm 1 mps 676 mmHg 97%
    23:00 +18°C° 0.4 mm 0 mps 675 mmHg 97%

    17 October, Thursday

    Time Temperature Precipitation Wind Pressure Humidity
    00:00 +20°C° 0.8 mm 1 mps 675 mmHg 98%
    01:00 +20°C° 0.8 mm 1 mps 675 mmHg 98%
    02:00 +20°C° 0.8 mm 1 mps 674 mmHg 98%
    03:00 +20°C° 2.3 mm 1 mps 674 mmHg 98%
    04:00 +20°C° 2.3 mm 1 mps 674 mmHg 99%
    05:00 +20°C° 2.3 mm 1 mps 674 mmHg 99%
    06:00 +20°C° 3.7 mm 1 mps 675 mmHg 99%
    07:00 +20°C° 3.7 mm 1 mps 675 mmHg 99%
    08:00 +19°C° 3.7 mm 1 mps 676 mmHg 99%
    09:00 +20°C° 2.1 mm 1 mps 676 mmHg 98%
    10:00 +20°C° 2.1 mm 1 mps 675 mmHg 98%
    11:00 +20°C° 2.1 mm 1 mps 675 mmHg 97%
    12:00 +20°C° 0.5 mm 1 mps 675 mmHg 97%
    13:00 +20°C° 0.5 mm 1 mps 674 mmHg 97%
    14:00 +20°C° 0.5 mm 1 mps 674 mmHg 97%
    15:00 +20°C° 0.2 mm 1 mps 674 mmHg 98%
    16:00 +17°C° 0.2 mm 0 mps 674 mmHg 98%
    17:00 +17°C° 0.2 mm 0 mps 674 mmHg 98%
    18:00 +17°C° 0.1 mm 0 mps 674 mmHg 98%
    19:00 +17°C° 0.1 mm 0 mps 675 mmHg 97%
    20:00 +17°C° 0.1 mm 0 mps 675 mmHg 97%
    21:00 +17°C° 0.1 mm 0 mps 675 mmHg 97%
    22:00 +17°C° 0.1 mm 0 mps 675 mmHg 97%
    23:00 +19°C° 0.1 mm 1 mps 675 mmHg 97%

    18 October, Friday

    Time Temperature Precipitation Wind Pressure Humidity
    00:00 +19°C° 0 mm 1 mps 674 mmHg 96%
    01:00 +19°C° 0 mm 1 mps 674 mmHg 95%
    02:00 +19°C° 0 mm 1 mps 674 mmHg 95%
    03:00 +19°C° 0 mm 1 mps 674 mmHg 94%
    04:00 +19°C° 0 mm 1 mps 674 mmHg 94%
    05:00 +19°C° 0 mm 1 mps 674 mmHg 93%
    06:00 +19°C° 0 mm 0 mps 674 mmHg 89%
    07:00 +20°C° 0 mm 0 mps 675 mmHg 85%
    08:00 +21°C° 0 mm 0 mps 675 mmHg 81%
    09:00 +22°C° 0 mm 0 mps 675 mmHg 77%
    10:00 +25°C° 0 mm 1 mps 675 mmHg 72%
    11:00 +27°C° 0 mm 1 mps 675 mmHg 68%
    12:00 +26°C° 0.4 mm 1 mps 674 mmHg 72%
    13:00 +26°C° 0.4 mm 2 mps 674 mmHg 75%
    14:00 +26°C° 0.4 mm 2 mps 673 mmHg 79%
    15:00 +25°C° 0.8 mm 2 mps 673 mmHg 84%
    16:00 +23°C° 0.8 mm 1 mps 673 mmHg 90%
    17:00 +22°C° 0.8 mm 1 mps 673 mmHg 95%
    18:00 +22°C° 0.5 mm 1 mps 673 mmHg 96%
    19:00 +22°C° 0.5 mm 1 mps 674 mmHg 96%
    20:00 +21°C° 0.5 mm 1 mps 674 mmHg 96%
    21:00 +19°C° 0.2 mm 0 mps 674 mmHg 96%
    22:00 +19°C° 0.2 mm 0 mps 674 mmHg 96%
    23:00 +19°C° 0.2 mm 0 mps 674 mmHg 96%

    19 October, Saturday

    Time Temperature Precipitation Wind Pressure Humidity
    00:00 +19°C° 0 mm 0 mps 674 mmHg 96%
    01:00 +19°C° 0 mm 0 mps 673 mmHg 95%
    02:00 +19°C° 0 mm 0 mps 673 mmHg 95%
    03:00 +18°C° 0 mm 0 mps 673 mmHg 95%
    04:00 +18°C° 0 mm 0 mps 673 mmHg 95%
    05:00 +18°C° 0 mm 0 mps 673 mmHg 94%
    06:00 +20°C° 0 mm 0 mps 673 mmHg 89%
    07:00 +21°C° 0 mm 0 mps 674 mmHg 84%
    08:00 +23°C° 0 mm 0 mps 675 mmHg 79%
    09:00 +26°C° 0 mm 1 mps 674 mmHg 75%
    10:00 +27°C° 0 mm 1 mps 674 mmHg 71%
    11:00 +28°C° 0 mm 2 mps 674 mmHg 67%
    12:00 +27°C° 0.5 mm 2 mps 673 mmHg 71%
    13:00 +27°C° 0.5 mm 2 mps 673 mmHg 76%
    14:00 +26°C° 0.5 mm 2 mps 672 mmHg 80%
    15:00 +25°C° 0.8 mm 2 mps 672 mmHg 85%
    16:00 +24°C° 0.8 mm 1 mps 672 mmHg 90%
    17:00 +22°C° 0.8 mm 1 mps 672 mmHg 96%
    18:00 +22°C° 1.5 mm 1 mps 673 mmHg 97%
    19:00 +22°C° 1.5 mm 1 mps 673 mmHg 97%
    20:00 +19°C° 1.5 mm 0 mps 674 mmHg 98%
    21:00 +19°C° 0.8 mm 0 mps 674 mmHg 98%
    22:00 +19°C° 0.8 mm 0 mps 674 mmHg 97%
    23:00 +19°C° 0.8 mm 0 mps 674 mmHg 97%
    Show more